Regional Weather Roundup
Issued by NWS Burlington, VT

Home | Current Version | Previous Version | Text Only | Print | Product List | Glossary On
Versions: 1 2 3 4 5 6 7 8 9 10 11 12 13 14 15 16 17 18 19 20 21 22 23 24 25 26 27 28 29 30 31 32 33 34 35 36 37 38 39 40 41 42 43 44 45 46 47 48 49 50
633
ASUS41 KBTV 201110
RWRBTV
VERMONT REGIONAL WEATHER ROUNDUP
NATIONAL WEATHER SERVICE BURLINGTON VT
600 AM EST FRI JAN 20 2017

NOTE: "FAIR" INDICATES FEW OR NO CLOUDS BELOW 12,000 FEET WITH NO
SIGNIFICANT WEATHER AND/OR OBSTRUCTIONS TO VISIBILITY.

* THESE REPORTS ARE NOT UNDER NWS QUALITY CONTROL AND/OR DO NOT
  REPORT WEATHER SUCH AS PRECIPITATION AND FOG.

VTZ001>019-201200-
_____VERMONT_____


CITY           SKY/WX    TMP DP  RH WIND       PRES   REMARKS
BURLINGTON     CLOUDY    34  29  82 SE3       30.00R
MONTPELIER     CLOUDY    31  27  85 S3        30.00S
MORRISVILLE    CLOUDY    31  28  89 CALM      30.00S
ST. JOHNSBURY*   N/A     32  31  96 MISG      29.96F
LYNDONVILLE*   CLOUDY    30  28  91 CALM      29.98S
MIDDLEBURY*    CLOUDY    32  26  79 CALM      30.00R
RUTLAND*       CLOUDY    31  30  96 CALM      29.98F
SPRINGFIELD    CLOUDY    32  29  88 CALM      30.00F
HIGHGATE*      CLOUDY    32  31  96 CALM      30.00S
NEWPORT*       CLOUDY    30  28  92 CALM      29.98R
BENNINGTON     CLOUDY    33  29  85 S5        29.97S WCI  29
SUTTON*          N/A     28 N/A N/A MISG        N/A

_____LAKE CHAMPLAIN_____


CITY           SKY/WX    TMP DP  RH WIND       PRES   REMARKS
BURTON ISLAND*   N/A     32  32 100 S1          N/A
COLCHESTER RF*   N/A     36  32  87 SE3         N/A
DIAMOND ISL*     N/A     34  32  93 S1          N/A

$$

NYZ007-026>031-035-052-083-087-201200-
_____NORTHERN NEW YORK_____


CITY           SKY/WX    TMP DP  RH WIND       PRES   REMARKS
PLATTSBURGH    CLOUDY    32  30  92 CALM      30.00R
SARANAC LAKE   LGT SNOW  29  26  89 SW5       29.90F FOG     WCI  24
MASSENA        CLOUDY    33  32  96 CALM      29.97F
OGDENSBURG*    CLOUDY    34  34 100 CALM      29.95F
POTSDAM*       CLOUDY    34  34 100 CALM      29.95F
WATERTOWN      CLOUDY    35  33  92 S3        29.94F
FT DRUM        CLOUDY    33  31  94 SE6       29.92F WCI  27
ALBANY         CLOUDY    33  30  88 CALM      30.01S
GLENS FALLS    CLOUDY    34  31  88 CALM      30.00S

$$
NHZ002-005-011-201200-
_____NEW HAMPSHIRE_____


CITY           SKY/WX    TMP DP  RH WIND       PRES   REMARKS
LEBANON        CLOUDY    33  31  92 CALM      29.99S
KEENE          CLOUDY    31  31 100 CALM      30.00F
MT WASHINGTON  MOCLDY    28   0  29 NW15        N/A  WCI  17
PLYMOUTH       CLOUDY    25  25  98 CALM      30.01R
WHITEFIELD     CLOUDY    31  25  78 CALM      29.96F

$$

_____REGIONAL QUEBEC LOCATIONS_____


CITY           SKY/WX    TMP DP  RH WIND       PRES   REMARKS
MONTREAL       CLOUDY    34  30  86 S2        29.98F
QUEBEC CITY    CLOUDY    30  28  93 VRB2      29.99R
SHERBROOKE     CLOUDY    30  30 100 SW3       29.98R FOG

_____REGIONAL ONTARIO LOCATIONS_____


CITY           SKY/WX    TMP DP  RH WIND       PRES   REMARKS
OTTAWA         CLOUDY    32  32 100 SE3       29.95S FOG

______KEY______
VSB  - VISIBILITY IN MILES
WCI  - WIND CHILL INDEX
HX   - HEAT INDEX
$$
NNNN




USA.gov is the U.S. government's official web portal to all federal, state and local government web resources and services.